Location: Ostrava
(49.8330°N, 18.2830°E)
Time: 16:49:35
(UTC+02:00)

Transit 2A - All Passes

Search period start: 22 June 2018 00:00
Search period end: 02 July 2018 00:00
Orbit: 601 x 958 km, 66.7° (Epoch: 21 June)

Date Brightness Start Highest point End Pass type
(mag) Time Alt. Az. Time Alt. Az. Time Alt. Az.
22 Jun - 01:04:14 10° NNW 01:08:31 47° NE 01:12:43 10° ESE visible
22 Jun - 02:47:49 10° WNW 02:51:23 25° WSW 02:54:57 10° SSW visible
22 Jun - 15:50:29 10° SE 15:53:17 15° ESE 15:55:58 10° ENE daylight
22 Jun - 17:30:36 10° SSW 17:35:51 85° SE 17:40:38 10° NE daylight
22 Jun - 19:15:37 10° W 19:19:33 23° NW 19:23:15 10° NNE daylight
22 Jun - 21:04:08 10° NNW 21:04:27 10° N 21:04:46 10° N daylight
22 Jun - 22:48:06 10° N 22:49:48 12° NNE 22:51:29 10° NE visible
23 Jun - 00:30:16 10° NNW 00:34:19 35° NE 00:38:19 10° ESE visible
23 Jun - 02:13:28 10° NW 02:17:27 36° WSW 02:21:28 10° S visible
23 Jun - 16:56:38 10° SSW 17:01:49 61° ESE 17:06:31 10° NE daylight
23 Jun - 18:40:55 10° W 18:45:16 28° NW 18:49:20 10° NNE daylight
23 Jun - 20:28:36 10° NNW 20:29:59 11° NNW 20:31:19 10° N daylight
23 Jun - 22:14:25 10° N 22:15:20 10° NNE 22:16:14 10° NNE visible
23 Jun - 23:56:19 10° NNW 00:00:05 27° NE 00:03:47 10° E visible
24 Jun - 01:39:14 10° NW 01:43:30 54° WSW 01:47:45 10° SSE visible
24 Jun - 16:22:51 10° S 16:27:49 43° ESE 16:32:21 10° NE daylight
24 Jun - 18:06:22 10° WSW 18:11:04 36° NW 18:15:23 10° NNE daylight
24 Jun - 19:53:26 10° NW 19:55:31 13° NNW 19:57:33 10° N daylight
24 Jun - 23:22:24 10° NNW 23:25:48 21° NNE 23:29:08 10° E visible
25 Jun - 01:05:06 10° NW 01:09:29 79° SW 01:13:50 10° SSE visible
25 Jun - 02:51:09 10° W 02:51:48 10° WSW 02:52:26 10° WSW visible
25 Jun - 15:49:16 10° S 15:53:51 31° ESE 15:58:04 10° NE daylight
25 Jun - 17:31:55 10° WSW 17:36:52 48° NW 17:41:25 10° NNE daylight
25 Jun - 19:18:24 10° WNW 19:21:06 15° NNW 19:23:42 10° N daylight
25 Jun - 22:48:30 10° NNW 22:51:28 17° NNE 22:54:22 10° ENE visible
26 Jun - 00:31:01 10° NNW 00:35:24 72° NE 00:39:46 10° SE visible
26 Jun - 02:15:22 10° WNW 02:17:59 16° WSW 02:20:36 10° SW visible
26 Jun - 15:15:57 10° SSE 15:19:55 22° ESE 15:23:37 10° ENE daylight
26 Jun - 16:57:37 10° SW 17:02:44 66° NW 17:07:25 10° NNE daylight
26 Jun - 18:43:27 10° WNW 18:46:43 18° NNW 18:49:50 10° NNE daylight
26 Jun - 22:14:39 10° N 22:17:05 14° NNE 22:19:28 10° ENE visible
26 Jun - 23:57:00 10° NNW 00:01:17 51° NE 00:05:33 10° SE visible
27 Jun - 01:40:40 10° WNW 01:44:07 23° WSW 01:47:34 10° SSW visible
27 Jun - 14:43:02 10° SE 14:46:02 16° ESE 14:48:53 10° ENE daylight
27 Jun - 16:23:28 10° SW 16:28:39 89° WNW 16:33:22 10° NE daylight
27 Jun - 18:08:37 10° W 18:12:23 21° NW 18:15:57 10° NNE daylight
27 Jun - 21:40:51 10° N 21:42:39 12° NNE 21:44:26 10° NE visible
27 Jun - 23:23:01 10° NNW 23:27:07 37° NE 23:31:10 10° ESE visible
28 Jun - 01:06:17 10° NW 01:10:12 33° WSW 01:14:08 10° S visible
28 Jun - 14:11:18 10° ESE 14:12:12 10° ESE 14:13:05 10° E daylight
28 Jun - 15:49:27 10° SSW 15:54:36 66° ESE 15:59:17 10° NE daylight
28 Jun - 17:33:55 10° W 17:38:06 27° NW 17:42:02 10° NNE daylight
28 Jun - 19:21:48 10° NNW 19:22:50 11° NNW 19:23:52 10° N daylight
28 Jun - 21:07:10 10° N 21:08:12 11° NNE 21:09:13 10° NNE daylight
28 Jun - 22:49:04 10° NNW 22:52:54 28° NE 22:56:40 10° E visible
29 Jun - 00:32:02 10° NW 00:36:14 49° WSW 00:40:28 10° SSE visible
29 Jun - 15:15:38 10° SSW 15:20:35 47° ESE 15:25:07 10° NE daylight
29 Jun - 16:59:18 10° WSW 17:03:51 34° NW 17:08:05 10° NNE daylight
29 Jun - 18:46:33 10° NW 18:48:23 12° NNW 18:50:10 10° N daylight
29 Jun - 22:15:09 10° NNW 22:18:37 22° NE 22:22:02 10° E visible
29 Jun - 23:57:52 10° NW 00:02:13 73° WSW 00:06:36 10° SSE visible
30 Jun - 14:42:00 10° S 14:46:36 33° ESE 14:50:51 10° NE daylight
30 Jun - 16:24:50 10° WSW 16:29:40 45° NW 16:34:08 10° NNE daylight
30 Jun - 18:11:28 10° NW 18:13:57 14° NNW 18:16:22 10° N daylight
30 Jun - 21:41:15 10° NNW 21:44:17 18° NNE 21:47:17 10° ENE visible
30 Jun - 23:23:47 10° NW 23:28:10 78° NE 23:32:33 10° SE visible
01 Jul - 01:08:20 10° WNW 01:10:41 14° WSW 01:13:05 10° SW visible
01 Jul - 14:08:37 10° SSE 14:12:40 24° ESE 14:16:27 10° ENE daylight
01 Jul - 15:50:30 10° SW 15:55:33 61° NW 16:00:08 10° NNE daylight
01 Jul - 17:36:29 10° WNW 17:39:34 17° NNW 17:42:31 10° NNE daylight
01 Jul - 21:07:24 10° N 21:09:55 15° NNE 21:12:25 10° ENE daylight
01 Jul - 22:49:45 10° NNW 22:54:04 55° NE 22:58:21 10° SE visible
